TimeEDT,TemperatureF,Dew PointF,Humidity,Sea Level PressureIn,VisibilityMPH,Wind Direction,Wind SpeedMPH,Gust SpeedMPH,PrecipitationIn,Events,Conditions,WindDirDegrees,DateUTC
12:51 AM,33.1,28.9,85,30.30,10.0,Calm,Calm,-,N/A,,Partly Cloudy,0,2013-03-11 04:51:00
1:51 AM,33.1,28.9,85,30.31,10.0,Calm,Calm,-,N/A,,Scattered Clouds,0,2013-03-11 05:51:00
2:51 AM,32.0,28.9,88,30.28,10.0,SE,3.5,-,N/A,,Mostly Cloudy,140,2013-03-11 06:51:00
3:51 AM,30.9,28.0,89,30.26,10.0,Calm,Calm,-,N/A,,Clear,0,2013-03-11 07:51:00
4:51 AM,30.0,28.9,96,30.24,10.0,SSE,4.6,-,N/A,,Clear,160,2013-03-11 08:51:00
5:51 AM,30.2,28.4,93,30.23,9.0,South,4.6,-,N/A,,Clear,180,2013-03-11 09:51:00
6:51 AM,30.0,28.9,96,30.24,9.0,SSE,4.6,-,N/A,,Clear,150,2013-03-11 10:51:00
7:51 AM,30.9,28.9,92,30.24,8.0,SSE,8.1,-,N/A,,Clear,160,2013-03-11 11:51:00
8:51 AM,33.1,30.0,89,30.24,10.0,SSE,4.6,-,N/A,,Clear,160,2013-03-11 12:51:00
9:51 AM,36.0,30.0,79,30.23,10.0,SE,10.4,-,N/A,,Clear,140,2013-03-11 13:51:00
10:51 AM,37.9,30.0,73,30.24,10.0,Variable,5.8,-,N/A,,Clear,0,2013-03-11 14:51:00
11:51 AM,41.0,30.0,65,30.22,10.0,SSE,9.2,-,N/A,,Clear,160,2013-03-11 15:51:00
12:51 PM,44.1,28.9,55,30.21,10.0,South,8.1,-,N/A,,Clear,190,2013-03-11 16:51:00
1:51 PM,46.9,28.9,50,30.19,10.0,SSE,8.1,-,N/A,,Partly Cloudy,160,2013-03-11 17:51:00
2:51 PM,46.9,28.9,50,30.17,10.0,SSE,10.4,-,N/A,,Clear,160,2013-03-11 18:51:00
3:51 PM,46.9,30.0,52,30.16,10.0,SSE,9.2,-,N/A,,Partly Cloudy,160,2013-03-11 19:51:00
4:51 PM,46.0,30.0,54,30.15,10.0,SSE,6.9,-,N/A,,Overcast,150,2013-03-11 20:51:00
5:51 PM,46.0,30.0,54,30.15,10.0,SSE,4.6,-,N/A,,Mostly Cloudy,150,2013-03-11 21:51:00
6:51 PM,46.0,30.0,54,30.14,10.0,Calm,Calm,-,N/A,,Clear,0,2013-03-11 22:51:00
7:51 PM,45.0,30.0,56,30.14,10.0,SE,3.5,-,N/A,,Clear,130,2013-03-11 23:51:00
8:51 PM,44.1,34.0,68,30.14,10.0,SSE,5.8,-,N/A,,Clear,150,2013-03-12 00:51:00
9:51 PM,42.1,35.1,76,30.14,10.0,SSE,9.2,-,N/A,,Clear,160,2013-03-12 01:51:00
10:51 PM,39.9,35.1,83,30.13,10.0,South,5.8,-,N/A,,Clear,170,2013-03-12 02:51:00
11:51 PM,37.9,35.1,89,30.14,10.0,SSE,5.8,-,N/A,,Clear,150,2013-03-12 03:51:00